DELTA 1 DEB, 39100

Orbit data source: Space-Track

DELTA 1 DEB, 39100 is space debris in LEO originally from a launch on Thu, 14 Jul 1977 UTC launched from the Air Force Eastern Test Range (AFETR). Debris objects in space refer to the collection of defunct objects orbiting the Earth. Examples of debris include non-operational satellites, rocket bodies, and fragments generated from explosions, collisions, or faulty payload assembly.

Not visible in the next 10 days
Identifier
39100, 1977-065GM
Orbit
LEO
Country
Flag of USUS
Related business
Manufacturer
Unknown
Mission
Spacecraft
Bus & Motor
Unknown
Mass
Unknown
Launch date (UTC)
1977-07-14 (48 years ago)
Launch vehicle
Unknown
Launch site
Air Force Eastern Test Range (AFETR)
Object type
Payload
Rocket body
Debris
Shape & HBR
Unknown shape, 0.1 m
Radar Cross Section
Small (<0.1 m²)

Expand to show TLE details & history
Last TLE update: 14 hours ago

TLE from 14 hours ago
0 DELTA 1 DEB
1 39100U 77065GM  25351.46735795  .00005435  00000-0  42817-3 0  9992
2 39100  29.2725 108.3401 0346768  61.9022 301.6178 14.61919769705464
Epoch: 2025-12-17T11:12Z
TLE epoch observation values (Epoch: 2025-12-17T11:12:59.726Z)
Latitude
-0.00002°
Longitude
-146.24559°
Altitude
563.279 km
Speed
7.647 km/s
True Right ascension
07h 13m 21s
True Declination
0° 00' 00"
Sunlit
Object was in full shadow at epoch
Visualization orbit readout
Latitude
Unknown
Longitude
Unknown
Altitude
Unknown
Speed
Unknown
Apparent Right ascension
Unknown
Apparent Declination
Unknown
Sunlit
N/A
Visualization observer readout
Local Sidereal Time
00:10:31
Azimuth
Unknown
Elevation
Unknown
Doppler factor
Unknown
Orbital elements
Apogee altitude
936.128 km
Perigee altitude
445.859 km
Semi-major axis
7,069.13 km
Eccentricity
0.03468
Inclination
29.2725°
RAAN
108.3401°
Arg. of periapsis
61.9022°
True anomaly
298.15747°
Mean anomaly
301.6178°
Eccentric anomaly
299.89534°
Mean motion
3.65169 °/min
Orbital period
98.58 mins
BSTAR
0.00042817
Loading maneuver chart data...
Computing Atmospheric mass density...
Loading historical data...
Loading historical data...
Loading historical data...
Loading historical data...
Loading historical data...
Loading historical data...
Loading historical data...

Documentation

Showing up to 5 results
|